Location: Antichan
(42.9728°N, 0.6667°E)
Time: 13:24:16
(UTC+00:00)

Meteor 1-11 Rocket - Pass Details

Date: 15 August 2020
Orbit: 832 x 915 km, 81.2° (Epoch: 24 September)

Event Time Altitude Azimuth Distance (km) Brightness Sun altitude
Exits shadow 21:31:49 50° 102° (ESE) 1,097 3.9 -23.8°
Maximum altitude 21:32:04 50° 94° (E) 1,094 3.9 -23.8°
Drops below altitude 10° 21:37:38 10° 20° (NNE) 2,553 6.6 -24.4°
Sets 21:40:11 0° 16° (NNE) 3,509 7.4 -24.7°
